DLH124 EDDH-EDDS

Flight info

Callsign DLH124
Flight time 1h 3m
Altitude 35000
Route IDEKO7G/33 IDEKO N850 NIE DCT BERXO DCT SILWE DCT OSBIT P605 TOSTU T726 LBU
Aircraft A35K/H-SDE2E3GHIJ3J4J5LM1ORWXY/LB1D1

Departure

Time 2026-04-25 11:28
Airport Hamburg Helmut Schmidt Airport (EDDH)

Arrival

Time 2026-04-25 12:31
Airport Stuttgart Airport (EDDS)
Time Latitude Longitude Altitude Speed Heading
2026-04-25 11:05 53.63038 10.00046 48 ft 0 kts 320°
2026-04-25 11:19 53.63025 10.00067 48 ft 4 kts 305°
2026-04-25 11:19 53.63017 10.00105 48 ft 4 kts 256°
2026-04-25 11:20 53.63030 10.00140 48 ft 4 kts 216°
2026-04-25 11:20 53.63039 10.00151 48 ft 1 kts 213°
2026-04-25 11:20 53.63040 10.00152 48 ft 0 kts 213°
2026-04-25 11:23 53.63039 10.00151 48 ft 1 kts 210°
2026-04-25 11:23 53.63020 10.00141 48 ft 6 kts 199°
2026-04-25 11:23 53.62958 10.00102 51 ft 11 kts 207°
2026-04-25 11:23 53.62879 10.00032 48 ft 14 kts 217°
2026-04-25 11:24 53.62851 9.99970 50 ft 0 kts 241°
2026-04-25 11:25 53.62848 9.99962 51 ft 2 kts 241°
2026-04-25 11:25 53.62834 9.99919 48 ft 6 kts 240°
2026-04-25 11:26 53.62817 9.99835 48 ft 9 kts 264°
2026-04-25 11:26 53.62849 9.99761 50 ft 8 kts 332°
2026-04-25 11:26 53.62856 9.99755 48 ft 0 kts 332°
2026-04-25 11:27 53.62976 9.99650 48 ft 62 kts 332°
2026-04-25 11:27 53.63382 9.99291 50 ft 131 kts 330°
2026-04-25 11:28 53.64863 9.98077 669 ft 207 kts 329°
2026-04-25 11:28 53.66204 9.96861 1628 ft 229 kts 327°
2026-04-25 11:28 53.67642 9.95608 2666 ft 233 kts 329°
2026-04-25 11:28 53.69076 9.94404 3938 ft 225 kts 329°
2026-04-25 11:29 53.70449 9.93240 5024 ft 225 kts 328°
2026-04-25 11:29 53.71650 9.91530 5909 ft 224 kts 299°
2026-04-25 11:29 53.71945 9.88998 6853 ft 234 kts 266°
2026-04-25 11:29 53.71364 9.86345 7813 ft 246 kts 251°
2026-04-25 11:30 53.70634 9.83711 8829 ft 248 kts 253°
2026-04-25 11:30 53.69969 9.81002 9886 ft 250 kts 256°
2026-04-25 11:30 53.69357 9.78255 10684 ft 262 kts 257°
2026-04-25 11:30 53.68721 9.75195 11179 ft 284 kts 257°
2026-04-25 11:31 53.68073 9.71951 11694 ft 305 kts 257°
2026-04-25 11:31 53.67376 9.68466 12290 ft 321 kts 257°
2026-04-25 11:31 53.66651 9.64847 13128 ft 329 kts 257°
2026-04-25 11:31 53.65910 9.61134 14009 ft 336 kts 256°
2026-04-25 11:32 53.65098 9.57380 14759 ft 347 kts 248°
2026-04-25 11:32 53.63533 9.54224 15560 ft 368 kts 225°
2026-04-25 11:32 53.61205 9.52119 16314 ft 391 kts 204°
2026-04-25 11:32 53.58454 9.51493 17106 ft 411 kts 183°
2026-04-25 11:33 53.55590 9.52343 17931 ft 424 kts 171°
2026-04-25 11:33 53.52677 9.53303 18689 ft 426 kts 178°
2026-04-25 11:33 53.49719 9.53665 19432 ft 426 kts 184°
2026-04-25 11:33 53.46791 9.53618 20186 ft 429 kts 188°
2026-04-25 11:34 53.43786 9.53330 20955 ft 432 kts 190°
2026-04-25 11:34 53.40800 9.52908 21691 ft 436 kts 191°
2026-04-25 11:34 53.37754 9.52400 22467 ft 440 kts 192°
2026-04-25 11:34 53.34675 9.51846 23193 ft 445 kts 192°
2026-04-25 11:35 53.31574 9.51267 23882 ft 450 kts 192°
2026-04-25 11:35 53.28429 9.50671 24510 ft 455 kts 192°
2026-04-25 11:35 53.25269 9.50060 25127 ft 460 kts 192°
2026-04-25 11:35 53.22068 9.49438 25744 ft 465 kts 192°
2026-04-25 11:36 53.18868 9.48816 26364 ft 469 kts 192°
2026-04-25 11:36 53.15603 9.48181 26979 ft 474 kts 192°
2026-04-25 11:36 53.12310 9.47542 27604 ft 478 kts 192°
2026-04-25 11:36 53.08993 9.46899 28207 ft 483 kts 192°
2026-04-25 11:37 53.05613 9.46244 28804 ft 488 kts 192°
2026-04-25 11:37 53.02233 9.45590 29374 ft 492 kts 192°
2026-04-25 11:37 52.98824 9.44932 29932 ft 496 kts 192°
2026-04-25 11:37 52.95406 9.44255 30402 ft 500 kts 193°
2026-04-25 11:38 52.91898 9.43507 30845 ft 504 kts 193°
2026-04-25 11:38 52.88433 9.42746 31256 ft 508 kts 193°
2026-04-25 11:38 52.84914 9.41972 31637 ft 512 kts 193°
2026-04-25 11:38 52.81350 9.41194 32021 ft 516 kts 193°
2026-04-25 11:39 52.77803 9.40431 32536 ft 516 kts 193°
2026-04-25 11:39 52.74237 9.39674 33117 ft 515 kts 193°
2026-04-25 11:39 52.70669 9.38919 33662 ft 515 kts 193°
2026-04-25 11:39 52.67122 9.38171 34168 ft 515 kts 193°
2026-04-25 11:40 52.63557 9.37433 34602 ft 515 kts 192°
2026-04-25 11:40 52.59968 9.37469 34990 ft 525 kts 177°
2026-04-25 11:40 52.56389 9.38516 35125 ft 528 kts 171°
2026-04-25 11:40 52.52805 9.40030 35134 ft 529 kts 168°
2026-04-25 11:41 52.45706 9.43259 35131 ft 530 kts 169°
2026-04-25 11:41 52.38560 9.46198 35098 ft 529 kts 171°
2026-04-25 11:42 52.31398 9.48898 35126 ft 526 kts 171°
2026-04-25 11:42 52.24266 9.51515 35123 ft 526 kts 171°
2026-04-25 11:43 52.17105 9.54140 35123 ft 526 kts 171°
2026-04-25 11:43 52.09956 9.56764 35115 ft 525 kts 171°
2026-04-25 11:44 52.02845 9.59369 35121 ft 523 kts 171°
2026-04-25 11:44 51.95779 9.61950 35122 ft 523 kts 171°
2026-04-25 11:45 51.88703 9.64526 35106 ft 523 kts 171°
2026-04-25 11:45 51.81591 9.67106 35122 ft 522 kts 170°
2026-04-25 11:46 51.74492 9.69674 35124 ft 522 kts 170°
2026-04-25 11:46 51.67177 9.72306 35123 ft 535 kts 170°
2026-04-25 11:47 51.60098 9.74849 35118 ft 536 kts 170°
2026-04-25 11:47 51.52760 9.77481 35123 ft 535 kts 170°
2026-04-25 11:48 51.45542 9.80060 35103 ft 531 kts 170°
2026-04-25 11:48 51.41991 9.81331 35049 ft 514 kts 170°
2026-04-25 11:48 51.38533 9.82568 34962 ft 499 kts 170°
2026-04-25 11:49 51.35193 9.83759 34903 ft 485 kts 170°
2026-04-25 11:49 51.31970 9.84904 34833 ft 471 kts 170°
2026-04-25 11:49 51.28805 9.86026 34786 ft 457 kts 170°
2026-04-25 11:49 51.25756 9.87104 34722 ft 444 kts 171°
2026-04-25 11:50 51.22755 9.88076 34654 ft 428 kts 176°
2026-04-25 11:50 51.19844 9.88393 34601 ft 410 kts 184°
2026-04-25 11:50 51.17040 9.88250 34540 ft 395 kts 188°
2026-04-25 11:50 51.14392 9.87928 34455 ft 381 kts 189°
2026-04-25 11:51 51.11783 9.87560 34387 ft 367 kts 189°
2026-04-25 11:51 51.09283 9.87223 34325 ft 356 kts 189°
2026-04-25 11:51 51.04344 9.86652 34230 ft 355 kts 188°
2026-04-25 11:52 50.99447 9.86189 34136 ft 355 kts 188°
2026-04-25 11:52 50.94395 9.85745 34116 ft 371 kts 187°
2026-04-25 11:53 50.89096 9.85280 34113 ft 391 kts 187°
2026-04-25 11:53 50.86339 9.85041 34116 ft 402 kts 187°
2026-04-25 11:53 50.83498 9.84794 34114 ft 414 kts 187°
2026-04-25 11:54 50.80618 9.84545 34112 ft 425 kts 187°
2026-04-25 11:54 50.77624 9.84287 34113 ft 437 kts 187°
2026-04-25 11:54 50.71378 9.83748 34114 ft 461 kts 186°
2026-04-25 11:55 50.68122 9.83469 34113 ft 473 kts 186°
2026-04-25 11:55 50.64812 9.83185 34125 ft 485 kts 186°
2026-04-25 11:55 50.61386 9.82892 34115 ft 497 kts 186°
2026-04-25 11:56 50.54391 9.82298 34112 ft 510 kts 186°
2026-04-25 11:56 50.47152 9.81684 34112 ft 527 kts 186°
2026-04-25 11:57 50.39795 9.81064 34110 ft 527 kts 186°
2026-04-25 11:57 50.32536 9.80454 34110 ft 527 kts 186°
2026-04-25 11:58 50.25176 9.79828 34110 ft 527 kts 186°
2026-04-25 11:58 50.17857 9.79214 34108 ft 527 kts 186°
2026-04-25 11:59 50.10556 9.78604 34108 ft 527 kts 186°
2026-04-25 11:59 50.03209 9.78353 34108 ft 529 kts 181°
2026-04-25 12:00 49.95871 9.78847 34066 ft 516 kts 179°
2026-04-25 12:00 49.92397 9.79142 34016 ft 500 kts 179°
2026-04-25 12:00 49.85655 9.79675 33880 ft 471 kts 180°
2026-04-25 12:01 49.82408 9.79904 33761 ft 465 kts 180°
2026-04-25 12:01 49.79112 9.80114 33358 ft 486 kts 180°
2026-04-25 12:01 49.75655 9.80324 32702 ft 494 kts 180°
2026-04-25 12:01 49.72236 9.80538 32063 ft 492 kts 180°
2026-04-25 12:02 49.65519 9.80928 30850 ft 476 kts 181°
2026-04-25 12:02 49.62188 9.81078 29853 ft 478 kts 181°
2026-04-25 12:02 49.58864 9.81473 28483 ft 476 kts 176°
2026-04-25 12:03 49.55593 9.82220 27162 ft 472 kts 173°
2026-04-25 12:03 49.52425 9.83124 25904 ft 466 kts 172°
2026-04-25 12:03 49.49286 9.84082 24700 ft 458 kts 172°
2026-04-25 12:03 49.46161 9.85037 23478 ft 450 kts 173°
2026-04-25 12:04 49.43117 9.85941 22154 ft 441 kts 173°
2026-04-25 12:04 49.40117 9.86803 20859 ft 433 kts 173°
2026-04-25 12:04 49.37201 9.87618 19649 ft 426 kts 172°
2026-04-25 12:04 49.34303 9.88416 18463 ft 420 kts 172°
2026-04-25 12:05 49.31444 9.89198 17132 ft 414 kts 172°
2026-04-25 12:05 49.28626 9.89968 15855 ft 408 kts 172°
2026-04-25 12:05 49.25848 9.90728 14634 ft 402 kts 172°
2026-04-25 12:05 49.23117 9.91473 13381 ft 395 kts 172°
2026-04-25 12:06 49.20428 9.92205 12095 ft 388 kts 171°
2026-04-25 12:06 49.17819 9.92807 10872 ft 378 kts 179°
2026-04-25 12:06 49.15269 9.92217 9644 ft 366 kts 202°
2026-04-25 12:06 49.13141 9.90264 8361 ft 354 kts 224°
2026-04-25 12:07 49.11755 9.87269 7281 ft 339 kts 249°
2026-04-25 12:07 49.11386 9.85005 6707 ft 327 kts 265°
2026-04-25 12:07 49.11433 9.81613 5883 ft 313 kts 276°
2026-04-25 12:07 49.11613 9.78399 5338 ft 294 kts 274°
2026-04-25 12:08 49.11608 9.75404 5114 ft 266 kts 267°
2026-04-25 12:08 49.11398 9.72750 5104 ft 244 kts 262°
2026-04-25 12:08 49.11046 9.70288 5071 ft 232 kts 256°
2026-04-25 12:08 49.10587 9.67912 5048 ft 232 kts 254°
2026-04-25 12:09 49.10058 9.65580 5039 ft 231 kts 252°
2026-04-25 12:09 49.09505 9.63302 4898 ft 233 kts 250°
2026-04-25 12:09 49.08928 9.61000 4447 ft 232 kts 250°
2026-04-25 12:09 49.08344 9.58675 3929 ft 237 kts 251°
2026-04-25 12:10 49.07761 9.56310 3445 ft 242 kts 251°
2026-04-25 12:10 49.07163 9.53868 3125 ft 244 kts 251°
2026-04-25 12:10 49.06572 9.51503 3014 ft 233 kts 251°
2026-04-25 12:10 49.06012 9.49255 3021 ft 227 kts 250°
2026-04-25 12:11 49.05446 9.47012 3026 ft 228 kts 250°
2026-04-25 12:11 49.04493 9.45074 3034 ft 231 kts 223°
2026-04-25 12:11 49.03210 9.43596 3030 ft 232 kts 214°
2026-04-25 12:11 49.01806 9.42356 3022 ft 232 kts 210°
2026-04-25 12:12 49.00367 9.41239 3026 ft 233 kts 208°
2026-04-25 12:12 48.98903 9.40146 3041 ft 234 kts 208°
2026-04-25 12:12 48.97454 9.39027 3014 ft 233 kts 211°
2026-04-25 12:12 48.96035 9.37869 3032 ft 234 kts 210°
2026-04-25 12:13 48.94605 9.36718 3021 ft 233 kts 210°
2026-04-25 12:13 48.93161 9.35553 2994 ft 232 kts 211°
2026-04-25 12:13 48.91801 9.34227 3015 ft 233 kts 226°
2026-04-25 12:13 48.91053 9.32130 3033 ft 225 kts 257°
2026-04-25 12:14 48.90730 9.29788 3009 ft 227 kts 261°
2026-04-25 12:14 48.90464 9.27420 3006 ft 227 kts 261°
2026-04-25 12:14 48.90193 9.25084 3033 ft 227 kts 262°
2026-04-25 12:14 48.89905 9.22703 2996 ft 228 kts 262°
2026-04-25 12:15 48.89612 9.20329 3001 ft 228 kts 261°
2026-04-25 12:15 48.89324 9.17970 3018 ft 228 kts 262°
2026-04-25 12:15 48.89033 9.15621 3012 ft 227 kts 261°
2026-04-25 12:15 48.88746 9.13252 3009 ft 228 kts 261°
2026-04-25 12:16 48.88451 9.10876 3019 ft 229 kts 261°
2026-04-25 12:16 48.88179 9.08505 3028 ft 230 kts 262°
2026-04-25 12:16 48.87874 9.06120 3019 ft 229 kts 260°
2026-04-25 12:16 48.87557 9.03741 3007 ft 229 kts 261°
2026-04-25 12:17 48.87276 9.01399 3005 ft 227 kts 262°
2026-04-25 12:17 48.86980 8.99045 3006 ft 226 kts 261°
2026-04-25 12:17 48.86675 8.96679 3015 ft 227 kts 261°
2026-04-25 12:17 48.86378 8.94368 2995 ft 210 kts 261°
2026-04-25 12:18 48.86111 8.92275 3038 ft 197 kts 262°
2026-04-25 12:18 48.85866 8.90251 3022 ft 196 kts 261°
2026-04-25 12:18 48.85609 8.88215 2994 ft 198 kts 260°
2026-04-25 12:18 48.85347 8.86172 3007 ft 197 kts 261°
2026-04-25 12:19 48.84911 8.82765 3015 ft 197 kts 261°
2026-04-25 12:19 48.84565 8.80032 3015 ft 197 kts 261°
2026-04-25 12:19 48.84307 8.78015 3029 ft 197 kts 262°
2026-04-25 12:20 48.84045 8.75953 3017 ft 195 kts 261°
2026-04-25 12:20 48.83792 8.73944 3012 ft 197 kts 260°
2026-04-25 12:20 48.83527 8.71891 3014 ft 197 kts 261°
2026-04-25 12:20 48.83268 8.69854 3015 ft 198 kts 260°
2026-04-25 12:21 48.83004 8.67794 3030 ft 198 kts 261°
2026-04-25 12:21 48.82738 8.65742 3021 ft 198 kts 260°
2026-04-25 12:21 48.82337 8.63771 3007 ft 201 kts 242°
2026-04-25 12:21 48.81224 8.62503 3020 ft 204 kts 196°
2026-04-25 12:22 48.79913 8.62710 3021 ft 204 kts 153°
2026-04-25 12:22 48.78978 8.64278 3019 ft 203 kts 110°
2026-04-25 12:22 48.78568 8.66294 2988 ft 204 kts 110°
2026-04-25 12:22 48.77849 8.68142 2887 ft 205 kts 123°
2026-04-25 12:23 48.77027 8.69914 2763 ft 204 kts 125°
2026-04-25 12:23 48.76187 8.71641 2616 ft 203 kts 126°
2026-04-25 12:23 48.75332 8.73346 2499 ft 203 kts 127°
2026-04-25 12:23 48.74459 8.75038 2385 ft 204 kts 127°
2026-04-25 12:24 48.73583 8.76735 2267 ft 203 kts 127°
2026-04-25 12:24 48.72738 8.78376 2512 ft 195 kts 127°
2026-04-25 12:24 48.71872 8.80058 2733 ft 208 kts 128°
2026-04-25 12:24 48.70967 8.81787 2936 ft 216 kts 128°
2026-04-25 12:25 48.70025 8.83577 3010 ft 219 kts 128°
2026-04-25 12:25 48.69082 8.85383 3006 ft 220 kts 128°
2026-04-25 12:25 48.68139 8.87190 3017 ft 219 kts 128°
2026-04-25 12:25 48.67194 8.89005 3005 ft 218 kts 128°
2026-04-25 12:26 48.66253 8.90796 3006 ft 217 kts 128°
2026-04-25 12:26 48.65303 8.92593 3023 ft 217 kts 128°
2026-04-25 12:26 48.64396 8.94375 2994 ft 215 kts 123°
2026-04-25 12:26 48.64016 8.96561 3016 ft 215 kts 85°
2026-04-25 12:27 48.64357 8.98707 3041 ft 212 kts 67°
2026-04-25 12:27 48.64874 9.00798 3026 ft 214 kts 68°
2026-04-25 12:27 48.65345 9.02936 3012 ft 213 kts 71°
2026-04-25 12:27 48.65741 9.05085 3029 ft 213 kts 73°
2026-04-25 12:28 48.66142 9.07249 3019 ft 211 kts 73°
2026-04-25 12:28 48.66538 9.09305 2852 ft 196 kts 72°
2026-04-25 12:28 48.66903 9.11199 2577 ft 183 kts 72°
2026-04-25 12:28 48.67234 9.12946 2338 ft 165 kts 71°
2026-04-25 12:29 48.67540 9.14556 2122 ft 154 kts 72°
2026-04-25 12:29 48.67837 9.16117 1884 ft 154 kts 70°
2026-04-25 12:29 48.68130 9.17671 1693 ft 156 kts 71°
2026-04-25 12:29 48.68427 9.19242 1501 ft 153 kts 71°
2026-04-25 12:30 48.68710 9.20749 1286 ft 139 kts 78°
2026-04-25 12:30 48.68905 9.21751 1271 ft 82 kts 72°
2026-04-25 12:30 48.69059 9.22581 1249 ft 82 kts 74°
2026-04-25 12:30 48.69196 9.23300 1222 ft 65 kts 74°
2026-04-25 12:31 48.69297 9.23713 1212 ft 17 kts 66°
2026-04-25 12:31 48.69387 9.23974 1205 ft 37 kts 58°
2026-04-25 12:31 48.69491 9.24152 1201 ft 0 kts 43°